Regional Weather Roundup
Issued by NWS

Home | Current Version | Previous Version | Text Only | Print | Product List | Glossary Off
Versions: 1 2 3 4 5 6 7 8 9 10 11 12 13 14 15 16 17 18 19 20 21 22 23 24 25 26 27 28 29 30 31 32 33 34 35 36 37 38 39 40 41 42 43 44 45 46 47 48 49 50

630
ASUS45 KCYS 290410
RWRWY

WYOMING REGIONAL WEATHER ROUNDUP
NATIONAL WEATHER SERVICE CHEYENNE WY
1000 PM MDT SUN MAY 28 2017

NOTE:  "FAIR" INDICATES FEW OR NO CLOUDS BELOW 12,000 FEET
WITH NO SIGNIFICANT WEATHER AND/OR OBSTRUCTIONS TO VISIBILITY.

WYZ001-290500-
YELLOWSTONE NATIONAL PARK

CITY           SKY/WX    TMP DP  RH WIND       PRES   REMARKS
LK YELLOWSTONE   N/A     41  38  89 CALM      30.41R
W YELLOWSTONE  NOT AVBL

$$
WYZ002>013-054>058-071-098>099-290500-
NORTHERN WYOMING

CITY           SKY/WX    TMP DP  RH WIND       PRES   REMARKS
JACKSON        FAIR      54  37  54 N21G28    30.32R
CODY           FAIR      52  41  66 W6        30.31R
GREYBULL       FAIR      60  39  45 NW13      30.21S
WORLAND        FAIR      52  49  89 SE9       30.23R
SHERIDAN       FAIR      54  40  59 W13       30.20R
BUFFALO        FAIR      56  36  47 NW14      30.24R
GILLETTE       FAIR      50  42  74 W14       30.18R
HULETT         FAIR      54  43  66 W9        30.16R
NEWCASTLE      FAIR      52  39  62 N7        30.17R

$$
WYZ014>020-022>026-101>103-290500-
CENTRAL WYOMING

CITY           SKY/WX    TMP DP  RH WIND       PRES   REMARKS
BIG PINEY      FAIR      44  32  62 N12       30.30R
PINEDALE       FAIR      45  32  61 NW3       30.32R
DUBOIS         CLOUDY    48  34  57 CALM      30.34R
LANDER         MOCLDY    50  44  80 W6        30.29R
RIVERTON       CLOUDY    58  39  49 SE3       30.29R
CASPER         CLOUDY    49  47  93 CALM      30.27R
DOUGLAS        FAIR      48  42  80 N3        30.26R

$$
WYZ021-027>030-104>119-290500-
SOUTHERN WYOMING

CITY           SKY/WX    TMP DP  RH WIND       PRES   REMARKS
EVANSTON       FAIR      54  27  35 N8        30.30R
KEMMERER         N/A     50  34  53 NW8       30.31R
FORT BRIDGER   FAIR      57  27  31 W3        30.32R
ROCK SPRINGS   FAIR      58  22  24 N5        30.27R
DIXON            N/A     46  36  70 CALM      30.29R
RAWLINS        MOCLDY    50  37  61 NE16G23   30.32R
SARATOGA       FAIR      48  34  57 NW8       30.32R
LARAMIE        FAIR      47  34  60 N10       30.32R
CHEYENNE       FAIR      53  39  59 N22G29    30.29R
TORRINGTON     CLOUDY    56  44  64 NW9       30.20R
PINE BLUFFS    FAIR      46  41  81 NW7       30.25R

$$




USA.gov is the U.S. government's official web portal to all federal, state and local government web resources and services.